,,Stat6,,Stat2,,Stat8,,Stat9,,Stat10,,Wind1,,Wind1,
time,status,PA1M_AVG,status,PR1M_SUM,status,RH1M_AVG,status,SR1M_AVG,status,TA1M_AVG,status,W1dAve1m,status,W1sAve1m,
2008-10-15, 00:00:00,VALID,916.626,VALID,0,VALID,100,VALID,-0.0679233,VALID,21.3455,VALID,62,VALID,0.161156,
2008-10-15, 00:01:00,VALID,916.596,VALID,0,VALID,100,VALID,0,VALID,21.3328,VALID,57,VALID,0,
2008-10-15, 00:02:00,VALID,916.564,VALID,0,VALID,100,VALID,-0.0169808,VALID,21.3093,VALID,62,VALID,0,
2008-10-15, 00:03:00,VALID,916.533,VALID,0,VALID,100,VALID,0,VALID,21.3158,VALID,62,VALID,0,
2008-10-15, 00:04:00,VALID,916.516,VALID,0,VALID,100,VALID,-0.0169808,VALID,21.3526,VALID,62,VALID,0,
2008-10-15, 00:05:01,VALID,916.531,VALID,0,VALID,100,VALID,-0.0339617,VALID,21.3425,VALID,62,VALID,0,
2008-10-15, 00:06:00,VALID,916.522,VALID,0,VALID,100,VALID,-0.0169808,VALID,21.326,VALID,63,VALID,0.0304688,
2008-10-15, 00:07:00,VALID,916.523,VALID,0,VALID,100,VALID,0,VALID,21.3195,VALID,66,VALID,0.0895712,
2008-10-15, 00:08:01,VALID,916.52,VALID,0,VALID,100,VALID,0,VALID,21.319,VALID,67,VALID,0,
2008-10-15, 00:09:00,VALID,916.519,VALID,0,VALID,100,VALID,-0.0169808,VALID,21.3168,VALID,80,VALID,0,
2008-10-15, 00:10:00,VALID,916.512,VALID,0,VALID,100,VALID,-0.0509425,VALID,21.3198,VALID,93,VALID,0,
2008-10-15, 00:11:01,VALID,916.519,VALID,0,VALID,100,VALID,-0.0339617,VALID,21.3682,VALID,89,VALID,0,
2008-10-15, 00:12:01,VALID,916.532,VALID,0,VALID,99.8739,VALID,0,VALID,21.4299,VALID,103,VALID,0,
2008-10-15, 00:13:00,VALID,916.544,VALID,0,VALID,99.6417,VALID,0,VALID,21.4494,VALID,103,VALID,0,
2008-10-15, 00:14:00,VALID,916.526,VALID,0,VALID,99.4992,VALID,0,VALID,21.4453,VALID,103,VALID,0,
2008-10-15, 00:15:00,VALID,916.518,VALID,0,VALID,99.3797,VALID,0,VALID,21.4624,VALID,103,VALID,0.504906,
2008-10-15, 00:16:01,VALID,916.525,VALID,0,VALID,99.264,VALID,0,VALID,21.4819,VALID,102,VALID,0,
2008-10-15, 00:17:00,VALID,916.525,VALID,0,VALID,99.1979,VALID,-0.0339617,VALID,21.4786,VALID,104,VALID,0,
2008-10-15, 00:18:00,VALID,916.535,VALID,0,VALID,99.2157,VALID,-0.0169808,VALID,21.4783,VALID,112,VALID,0.370561,
2008-10-15, 00:19:01,VALID,916.538,VALID,0,VALID,99.2335,VALID,-0.0169808,VALID,21.4819,VALID,122,VALID,0.150254,
2008-10-15, 00:20:01,VALID,916.529,VALID,0,VALID,99.2704,VALID,-0.0169808,VALID,21.4854,VALID,126,VALID,0.641387,
2008-10-15, 00:21:01,VALID,916.515,VALID,0,VALID,99.4255,VALID,-0.0339617,VALID,21.4949,VALID,134,VALID,0.00260417,
2008-10-15, 00:22:01,VALID,916.504,VALID,0,VALID,99.4916,VALID,0,VALID,21.4819,VALID,144,VALID,0,
2008-10-15, 00:23:01,VALID,916.495,VALID,0,VALID,99.6264,VALID,-0.0679233,VALID,21.4754,VALID,144,VALID,0,
2008-10-15, 00:24:01,VALID,916.478,VALID,0,VALID,99.5946,VALID,-0.0339617,VALID,21.4597,VALID,129,VALID,0,
2008-10-15, 00:25:01,VALID,916.495,VALID,0,VALID,99.6531,VALID,-0.0509425,VALID,21.4532,VALID,115,VALID,0,
2008-10-15, 00:26:00,VALID,916.491,VALID,0,VALID,99.6811,VALID,-0.0509425,VALID,21.4107,VALID,81,VALID,0,
2008-10-15, 00:27:01,VALID,916.501,VALID,0,VALID,99.7154,VALID,-0.0679233,VALID,21.385,VALID,79,VALID,0,
2008-10-15, 00:28:01,VALID,916.498,VALID,0,VALID,99.7014,VALID,-0.0509425,VALID,21.388,VALID,86,VALID,0,
2008-10-15, 00:29:01,VALID,916.492,VALID,0,VALID,99.648,VALID,-0.0339617,VALID,21.4077,VALID,87,VALID,0.0366319,
2008-10-15, 00:30:01,VALID,916.486,VALID,0,VALID,99.6874,VALID,-0.0679233,VALID,21.4307,VALID,89,VALID,0.0426683,
2008-10-15, 00:31:01,VALID,916.469,VALID,0,VALID,99.6684,VALID,-0.101885,VALID,21.4275,VALID,73,VALID,0.298118,
2008-10-15, 00:32:01,VALID,916.439,VALID,0,VALID,99.6862,VALID,-0.0509425,VALID,21.3847,VALID,67,VALID,0,
2008-10-15, 00:33:01,VALID,916.414,VALID,0,VALID,99.8896,VALID,-0.0509425,VALID,21.3818,VALID,52,VALID,0,
2008-10-15, 00:34:00,VALID,916.372,VALID,0.2,VALID,99.9372,VALID,-0.0679233,VALID,21.3393,VALID,47,VALID,0,
2008-10-15, 00:35:00,VALID,916.345,VALID,0,VALID,100,VALID,-0.0679233,VALID,21.3266,VALID,47,VALID,0,
2008-10-15, 00:36:00,VALID,916.338,VALID,0,VALID,100,VALID,-0.0509425,VALID,21.3263,VALID,47,VALID,0,
2008-10-15, 00:37:00,VALID,916.307,VALID,0,VALID,100,VALID,-0.0679233,VALID,21.3198,VALID,47,VALID,0,
2008-10-15, 00:38:00,VALID,916.273,VALID,0,VALID,100,VALID,-0.0679233,VALID,21.3136,VALID,47,VALID,0,
2008-10-15, 00:39:00,VALID,916.256,VALID,0.2,VALID,100,VALID,-0.0169808,VALID,21.3163,VALID,42,VALID,0.0884811,
2008-10-15, 00:40:00,VALID,916.256,VALID,0,VALID,100,VALID,-0.0679233,VALID,21.3655,VALID,21,VALID,0.0261052,
2008-10-15, 00:41:00,VALID,916.257,VALID,0,VALID,100,VALID,-0.0339617,VALID,21.375,VALID,35,VALID,1.09126,
2008-10-15, 00:42:00,VALID,916.272,VALID,0,VALID,99.9702,VALID,-0.0169808,VALID,21.3945,VALID,46,VALID,0.0178052,
2008-10-15, 00:43:00,VALID,916.287,VALID,0,VALID,99.998,VALID,-0.0339617,VALID,21.4302,VALID,46,VALID,0,
2008-10-15, 00:44:00,VALID,916.3,VALID,0,VALID,99.6976,VALID,-0.0679233,VALID,21.4107,VALID,61,VALID,0,
2008-10-15, 00:45:00,VALID,916.308,VALID,0,VALID,99.6099,VALID,-0.0339617,VALID,21.385,VALID,86,VALID,0.000390625,
2008-10-15, 00:46:00,VALID,916.3,VALID,0,VALID,99.3759,VALID,-0.0169808,VALID,21.3493,VALID,107,VALID,0.196948,
2008-10-15, 00:47:00,VALID,916.288,VALID,0,VALID,99.3174,VALID,-0.0679233,VALID,21.3233,VALID,107,VALID,0,
2008-10-15, 00:48:00,VALID,916.285,VALID,0,VALID,99.3594,VALID,-0.0509425,VALID,21.3101,VALID,113,VALID,0.27691,
2008-10-15, 00:49:00,VALID,916.275,VALID,0.2,VALID,99.3823,VALID,-0.0169808,VALID,21.2971,VALID,135,VALID,0.896439,
2008-10-15, 00:50:00,VALID,916.236,VALID,0,VALID,99.5285,VALID,-0.0339617,VALID,21.3066,VALID,158,VALID,0.0400152,
2008-10-15, 00:51:00,VALID,916.218,VALID,0,VALID,99.5959,VALID,-0.0339617,VALID,21.3001,VALID,152,VALID,0,
2008-10-15, 00:52:00,VALID,916.199,VALID,0,VALID,99.7955,VALID,-0.0339617,VALID,21.2871,VALID,164,VALID,0,
2008-10-15, 00:53:00,VALID,916.199,VALID,0,VALID,99.9652,VALID,-0.0339617,VALID,21.2776,VALID,174,VALID,0,
2008-10-15, 00:54:00,VALID,916.202,VALID,0,VALID,100,VALID,-0.0339617,VALID,21.2676,VALID,172,VALID,0,
2008-10-15, 00:55:00,VALID,916.217,VALID,0,VALID,100,VALID,0,VALID,21.2581,VALID,173,VALID,0,
2008-10-15, 00:56:00,VALID,916.238,VALID,0,VALID,100,VALID,-0.0509425,VALID,21.2414,VALID,173,VALID,0,
2008-10-15, 00:57:00,VALID,916.258,VALID,0,VALID,100,VALID,-0.0509425,VALID,21.2251,VALID,173,VALID,0,
2008-10-15, 00:58:00,VALID,916.26,VALID,0,VALID,100,VALID,-0.0169808,VALID,21.2051,VALID,173,VALID,0,
2008-10-15, 00:59:00,VALID,916.27,VALID,0.2,VALID,100,VALID,-0.0339617,VALID,21.2162,VALID,173,VALID,0,
2008-10-15, 01:00:00,VALID,916.268,VALID,0,VALID,100,VALID,-0.0339617,VALID,21.2157,VALID,173,VALID,0,
2008-10-15, 01:01:00,VALID,916.262,VALID,0,VALID,100,VALID,-0.0339617,VALID,21.2186,VALID,176,VALID,0,
2008-10-15, 01:02:00,VALID,916.272,VALID,0,VALID,100,VALID,-0.0509425,VALID,21.2222,VALID,176,VALID,0,
2008-10-15, 01:03:00,VALID,916.274,VALID,0,VALID,100,VALID,-0.0339617,VALID,21.2222,VALID,176,VALID,0,
2008-10-15, 01:04:00,VALID,916.275,VALID,0,VALID,100,VALID,-0.0509425,VALID,21.2292,VALID,176,VALID,0,
2008-10-15, 01:05:00,VALID,916.28,VALID,0,VALID,100,VALID,-0.0339617,VALID,21.2219,VALID,176,VALID,0,
2008-10-15, 01:06:00,VALID,916.303,VALID,0,VALID,100,VALID,-0.0679233,VALID,21.2254,VALID,176,VALID,0,
2008-10-15, 01:07:00,VALID,916.312,VALID,0,VALID,100,VALID,-0.0339617,VALID,21.2287,VALID,174,VALID,0,
2008-10-15, 01:08:00,VALID,916.326,VALID,0.2,VALID,100,VALID,-0.0169808,VALID,21.1856,VALID,134,VALID,0,
2008-10-15, 01:09:00,VALID,916.327,VALID,0,VALID,100,VALID,-0.0169808,VALID,21.1599,VALID,134,VALID,0,
2008-10-15, 01:10:00,VALID,916.33,VALID,0,VALID,100,VALID,0,VALID,21.1472,VALID,134,VALID,0,
2008-10-15, 01:11:00,VALID,916.328,VALID,0,VALID,100,VALID,-0.0339617,VALID,21.1372,VALID,152,VALID,0,
2008-10-15, 01:12:00,VALID,916.338,VALID,0,VALID,100,VALID,-0.0169808,VALID,21.1478,VALID,154,VALID,0.618096,
2008-10-15, 01:13:00,VALID,916.336,VALID,0,VALID,100,VALID,-0.0509425,VALID,21.118,VALID,163,VALID,0.938453,
2008-10-15, 01:14:00,VALID,916.34,VALID,0,VALID,100,VALID,-0.0339617,VALID,21.128,VALID,158,VALID,0.947674,
2008-10-15, 01:15:00,VALID,916.352,VALID,0,VALID,100,VALID,-0.0169808,VALID,21.1472,VALID,169,VALID,0.653274,
2008-10-15, 01:16:00,VALID,916.345,VALID,0,VALID,100,VALID,-0.0339617,VALID,21.1667,VALID,154,VALID,0.0154433,
2008-10-15, 01:17:00,VALID,916.341,VALID,0.2,VALID,100,VALID,-0.0849042,VALID,21.1708,VALID,164,VALID,0.235518,
2008-10-15, 01:18:00,VALID,916.319,VALID,0.2,VALID,100,VALID,-0.0509425,VALID,21.1705,VALID,187,VALID,1.30748,
2008-10-15, 01:19:00,VALID,916.305,VALID,0,VALID,100,VALID,-0.0509425,VALID,21.1378,VALID,161,VALID,0.226749,
2008-10-15, 01:20:00,VALID,916.324,VALID,0,VALID,100,VALID,-0.0509425,VALID,21.1218,VALID,164,VALID,1.41871,
2008-10-15, 01:21:00,VALID,916.335,VALID,0,VALID,100,VALID,-0.0339617,VALID,21.0885,VALID,150,VALID,1.1896,
2008-10-15, 01:22:00,VALID,916.348,VALID,0.2,VALID,100,VALID,-0.0339617,VALID,21.108,VALID,182,VALID,0.885121,
2008-10-15, 01:23:00,VALID,916.346,VALID,0,VALID,100,VALID,-0.0509425,VALID,21.1018,VALID,171,VALID,0.496366,
2008-10-15, 01:24:00,VALID,916.32,VALID,0,VALID,100,VALID,-0.0509425,VALID,21.1056,VALID,173,VALID,0.257254,
2008-10-15, 01:25:00,VALID,916.274,VALID,0,VALID,100,VALID,-0.0169808,VALID,21.0791,VALID,179,VALID,0,
2008-10-15, 01:26:00,VALID,916.258,VALID,0,VALID,100,VALID,-0.0339617,VALID,21.0431,VALID,129,VALID,0,
2008-10-15, 01:27:00,VALID,916.284,VALID,0,VALID,100,VALID,-0.0679233,VALID,21.0596,VALID,97,VALID,0.62314,
2008-10-15, 01:28:00,VALID,916.298,VALID,0,VALID,100,VALID,-0.0509425,VALID,21.0888,VALID,80,VALID,0.419085,
2008-10-15, 01:29:00,VALID,916.282,VALID,0,VALID,100,VALID,-0.0509425,VALID,21.0823,VALID,80,VALID,0,
2008-10-15, 01:30:00,VALID,916.278,VALID,0,VALID,100,VALID,-0.0509425,VALID,21.0826,VALID,81,VALID,0,
2008-10-15, 01:31:00,VALID,916.286,VALID,0,VALID,100,VALID,-0.0339617,VALID,21.0756,VALID,84,VALID,0,
2008-10-15, 01:32:00,VALID,916.279,VALID,0,VALID,100,VALID,-0.0509425,VALID,21.0766,VALID,85,VALID,0,
2008-10-15, 01:33:00,VALID,916.276,VALID,0,VALID,100,VALID,0,VALID,21.0655,VALID,97,VALID,0.257422,
2008-10-15, 01:34:00,VALID,916.243,VALID,0,VALID,100,VALID,0,VALID,21.1148,VALID,135,VALID,0,
2008-10-15, 01:35:00,VALID,916.231,VALID,0,VALID,100,VALID,0,VALID,21.1142,VALID,132,VALID,0.49535,
2008-10-15, 01:36:00,VALID,916.209,VALID,0,VALID,100,VALID,-0.0169808,VALID,21.0983,VALID,139,VALID,0.757449,
2008-10-15, 01:37:00,VALID,916.192,VALID,0,VALID,99.8802,VALID,0,VALID,21.1535,VALID,133,VALID,0.15263,
2008-10-15, 01:38:00,VALID,916.168,VALID,0,VALID,99.7332,VALID,-0.0169808,VALID,21.1924,VALID,156,VALID,0,
2008-10-15, 01:39:00,VALID,916.148,VALID,0,VALID,99.5921,VALID,0.0169808,VALID,21.2192,VALID,158,VALID,0,
2008-10-15, 01:40:00,VALID,916.14,VALID,0,VALID,99.3708,VALID,-0.0169808,VALID,21.2092,VALID,128,VALID,0,
2008-10-15, 01:41:00,VALID,916.118,VALID,0,VALID,99.4382,VALID,0,VALID,21.2216,VALID,124,VALID,0,
2008-10-15, 01:42:00,VALID,916.13,VALID,0,VALID,99.4039,VALID,0,VALID,21.2249,VALID,124,VALID,0,
2008-10-15, 01:43:00,VALID,916.135,VALID,0,VALID,99.3212,VALID,0,VALID,21.2151,VALID,124,VALID,0,
2008-10-15, 01:44:00,VALID,916.122,VALID,0,VALID,99.2462,VALID,-0.0339617,VALID,21.1924,VALID,134,VALID,0,
2008-10-15, 01:45:00,VALID,916.095,VALID,0,VALID,99.1521,VALID,0,VALID,21.1694,VALID,156,VALID,0,
2008-10-15, 01:46:00,VALID,916.088,VALID,0,VALID,99.2424,VALID,0.0169808,VALID,21.1502,VALID,155,VALID,0,
2008-10-15, 01:47:00,VALID,916.085,VALID,0,VALID,99.2119,VALID,-0.0169808,VALID,21.1283,VALID,155,VALID,0,
2008-10-15, 01:48:00,VALID,916.091,VALID,0,VALID,99.3238,VALID,0.0169808,VALID,21.1045,VALID,155,VALID,0,
2008-10-15, 01:49:00,VALID,916.082,VALID,0,VALID,99.2475,VALID,0,VALID,21.0785,VALID,136,VALID,0,
2008-10-15, 01:50:00,VALID,916.103,VALID,0,VALID,99.381,VALID,-0.0169808,VALID,21.0856,VALID,122,VALID,0,
2008-10-15, 01:51:00,VALID,916.09,VALID,0,VALID,99.4471,VALID,-0.0169808,VALID,21.0626,VALID,141,VALID,0,
2008-10-15, 01:52:00,VALID,916.088,VALID,0,VALID,99.4471,VALID,-0.0339617,VALID,21.0466,VALID,141,VALID,0,
2008-10-15, 01:53:00,VALID,916.091,VALID,0,VALID,99.2576,VALID,0,VALID,21.0369,VALID,125,VALID,0.114826,
2008-10-15, 01:54:00,VALID,916.102,VALID,0,VALID,98.9512,VALID,-0.0169808,VALID,21.0593,VALID,135,VALID,0,
2008-10-15, 01:55:00,VALID,916.103,VALID,0,VALID,98.7019,VALID,0,VALID,21.0883,VALID,135,VALID,0,
2008-10-15, 01:56:00,VALID,916.107,VALID,0,VALID,98.6969,VALID,0,VALID,21.111,VALID,135,VALID,0,
2008-10-15, 01:57:00,VALID,916.109,VALID,0,VALID,98.791,VALID,-0.0169808,VALID,21.1275,VALID,135,VALID,0,
2008-10-15, 01:58:00,VALID,916.105,VALID,0,VALID,98.763,VALID,0,VALID,21.121,VALID,135,VALID,0,
2008-10-15, 01:59:00,VALID,916.107,VALID,0,VALID,98.5633,VALID,0,VALID,21.082,VALID,125,VALID,0,
2008-10-15, 02:00:00,VALID,916.115,VALID,0,VALID,98.646,VALID,0,VALID,21.0818,VALID,123,VALID,0,
2008-10-15, 02:01:00,VALID,916.117,VALID,0,VALID,98.735,VALID,-0.0339617,VALID,21.0628,VALID,123,VALID,0,
2008-10-15, 02:02:00,VALID,916.117,VALID,0,VALID,98.7999,VALID,0,VALID,21.0306,VALID,123,VALID,0,
2008-10-15, 02:03:00,VALID,916.105,VALID,0,VALID,98.997,VALID,0,VALID,21.0109,VALID,123,VALID,0,
2008-10-15, 02:04:00,VALID,916.104,VALID,0,VALID,99.1521,VALID,-0.0169808,VALID,20.9947,VALID,124,VALID,0,
2008-10-15, 02:05:00,VALID,916.082,VALID,0,VALID,99.2437,VALID,-0.0169808,VALID,20.9519,VALID,124,VALID,0.0356105,
2008-10-15, 02:06:00,VALID,916.063,VALID,0,VALID,99.456,VALID,-0.0509425,VALID,20.9327,VALID,120,VALID,0,
2008-10-15, 02:07:00,VALID,916.054,VALID,0,VALID,99.5844,VALID,0,VALID,20.9133,VALID,118,VALID,0,
2008-10-15, 02:08:00,VALID,916.034,VALID,0,VALID,99.8197,VALID,0,VALID,20.8838,VALID,117,VALID,0,
2008-10-15, 02:09:00,VALID,916.025,VALID,0,VALID,100,VALID,0.0169808,VALID,20.8643,VALID,94,VALID,0,
2008-10-15, 02:10:00,VALID,916.001,VALID,0,VALID,100,VALID,0,VALID,20.8159,VALID,86,VALID,0,
2008-10-15, 02:11:00,VALID,915.995,VALID,0,VALID,100,VALID,0.0169808,VALID,20.7572,VALID,86,VALID,0,
2008-10-15, 02:12:00,VALID,915.97,VALID,0,VALID,100,VALID,0,VALID,20.728,VALID,86,VALID,0,
2008-10-15, 02:13:00,VALID,915.95,VALID,0,VALID,100,VALID,0,VALID,20.715,VALID,85,VALID,0,
2008-10-15, 02:14:00,VALID,915.929,VALID,0,VALID,100,VALID,0,VALID,20.7115,VALID,83,VALID,0,
2008-10-15, 02:15:00,VALID,915.918,VALID,0,VALID,100,VALID,0,VALID,20.7085,VALID,84,VALID,0,
2008-10-15, 02:16:00,VALID,915.897,VALID,0,VALID,100,VALID,0,VALID,20.7145,VALID,92,VALID,0.12035,
2008-10-15, 02:17:00,VALID,915.886,VALID,0,VALID,100,VALID,-0.0169808,VALID,20.7183,VALID,104,VALID,0,
2008-10-15, 02:18:00,VALID,915.862,VALID,0,VALID,100,VALID,-0.0169808,VALID,20.7153,VALID,96,VALID,0,
2008-10-15, 02:19:00,VALID,915.859,VALID,0,VALID,100,VALID,-0.0339617,VALID,20.7258,VALID,91,VALID,0,
2008-10-15, 02:20:00,VALID,915.851,VALID,0,VALID,100,VALID,-0.0169808,VALID,20.699,VALID,83,VALID,0,
2008-10-15, 02:21:00,VALID,915.837,VALID,0,VALID,100,VALID,-0.0509425,VALID,20.6761,VALID,57,VALID,0.0613839,
2008-10-15, 02:22:00,VALID,915.81,VALID,0,VALID,100,VALID,-0.0169808,VALID,20.6861,VALID,53,VALID,0,
2008-10-15, 02:23:00,VALID,915.798,VALID,0,VALID,100,VALID,0,VALID,20.6928,VALID,55,VALID,0,
2008-10-15, 02:24:00,VALID,915.777,VALID,0,VALID,100,VALID,-0.0169808,VALID,20.6504,VALID,59,VALID,0.0588796,
2008-10-15, 02:25:00,VALID,915.768,VALID,0,VALID,100,VALID,-0.0169808,VALID,20.6179,VALID,81,VALID,0,
2008-10-15, 02:26:00,VALID,915.767,VALID,0,VALID,100,VALID,-0.0339617,VALID,20.5984,VALID,81,VALID,0,
2008-10-15, 02:27:00,VALID,915.754,VALID,0,VALID,100,VALID,0,VALID,20.5792,VALID,81,VALID,0,
2008-10-15, 02:28:00,VALID,915.745,VALID,0,VALID,100,VALID,-0.0339617,VALID,20.563,VALID,81,VALID,0,
2008-10-15, 02:29:00,VALID,915.748,VALID,0,VALID,100,VALID,-0.0339617,VALID,20.5662,VALID,81,VALID,0,
2008-10-15, 02:30:00,VALID,915.73,VALID,0,VALID,100,VALID,-0.0509425,VALID,20.5695,VALID,81,VALID,0,
2008-10-15, 02:31:00,VALID,915.728,VALID,0,VALID,100,VALID,-0.0169808,VALID,20.5825,VALID,81,VALID,0,
2008-10-15, 02:32:00,VALID,915.726,VALID,0,VALID,100,VALID,0,VALID,20.5887,VALID,81,VALID,0,
2008-10-15, 02:33:00,VALID,915.712,VALID,0,VALID,100,VALID,0,VALID,20.5949,VALID,81,VALID,0,
2008-10-15, 02:34:00,VALID,915.701,VALID,0,VALID,100,VALID,-0.0169808,VALID,20.6047,VALID,81,VALID,0,
2008-10-15, 02:35:00,VALID,915.69,VALID,0,VALID,100,VALID,0,VALID,20.6274,VALID,81,VALID,0,
2008-10-15, 02:36:00,VALID,915.688,VALID,0,VALID,100,VALID,-0.0169808,VALID,20.6441,VALID,81,VALID,0,
2008-10-15, 02:37:00,VALID,915.691,VALID,0,VALID,100,VALID,-0.0169808,VALID,20.6504,VALID,81,VALID,0,
2008-10-15, 02:38:00,VALID,915.703,VALID,0,VALID,100,VALID,-0.0169808,VALID,20.6506,VALID,81,VALID,0,
2008-10-15, 02:39:00,VALID,915.713,VALID,0,VALID,100,VALID,-0.0339617,VALID,20.6569,VALID,81,VALID,0,
2008-10-15, 02:40:00,VALID,915.739,VALID,0,VALID,100,VALID,-0.0169808,VALID,20.6469,VALID,81,VALID,0.0320122,
2008-10-15, 02:41:00,VALID,915.759,VALID,0,VALID,100,VALID,-0.0169808,VALID,20.6404,VALID,81,VALID,0,
2008-10-15, 02:42:00,VALID,915.776,VALID,0,VALID,100,VALID,0,VALID,20.6631,VALID,81,VALID,0,
2008-10-15, 02:43:00,VALID,915.769,VALID,0,VALID,100,VALID,-0.0339617,VALID,20.6728,VALID,81,VALID,0,
2008-10-15, 02:44:00,VALID,915.758,VALID,0,VALID,100,VALID,-0.0339617,VALID,20.6763,VALID,81,VALID,0,
2008-10-15, 02:45:00,VALID,915.739,VALID,0,VALID,100,VALID,-0.0169808,VALID,20.6763,VALID,81,VALID,0,
2008-10-15, 02:46:00,VALID,915.743,VALID,0,VALID,100,VALID,-0.0169808,VALID,20.6866,VALID,81,VALID,0,
2008-10-15, 02:47:00,VALID,915.731,VALID,0,VALID,100,VALID,0,VALID,20.6761,VALID,132,VALID,0.0121951,
2008-10-15, 02:48:00,VALID,915.739,VALID,0,VALID,100,VALID,0,VALID,20.7061,VALID,171,VALID,0.21317,
2008-10-15, 02:49:00,VALID,915.732,VALID,0,VALID,100,VALID,-0.0169808,VALID,20.699,VALID,171,VALID,0,
2008-10-15, 02:50:00,VALID,915.719,VALID,0,VALID,100,VALID,0,VALID,20.6793,VALID,171,VALID,0,
2008-10-15, 02:51:00,VALID,915.701,VALID,0,VALID,100,VALID,0,VALID,20.6631,VALID,172,VALID,0,
2008-10-15, 02:52:00,VALID,915.672,VALID,0,VALID,100,VALID,0,VALID,20.6533,VALID,179,VALID,0.0501953,
2008-10-15, 02:53:00,VALID,915.661,VALID,0,VALID,100,VALID,0,VALID,20.6533,VALID,179,VALID,0.0816592,
2008-10-15, 02:54:00,VALID,915.649,VALID,0,VALID,100,VALID,-0.0169808,VALID,20.6798,VALID,177,VALID,0,
2008-10-15, 02:55:00,VALID,915.636,VALID,0,VALID,100,VALID,0,VALID,20.6761,VALID,162,VALID,0,
2008-10-15, 02:56:00,VALID,915.602,VALID,0,VALID,100,VALID,-0.0169808,VALID,20.6698,VALID,164,VALID,0,
2008-10-15, 02:57:00,VALID,915.603,VALID,0,VALID,100,VALID,0,VALID,20.6763,VALID,169,VALID,0,
2008-10-15, 02:58:00,VALID,915.572,VALID,0,VALID,100,VALID,-0.0169808,VALID,20.6701,VALID,164,VALID,0,
2008-10-15, 02:59:00,VALID,915.566,VALID,0,VALID,100,VALID,-0.0169808,VALID,20.6728,VALID,164,VALID,0,
2008-10-15, 03:00:00,VALID,915.56,VALID,0,VALID,100,VALID,-0.0339617,VALID,20.6701,VALID,155,VALID,0,
2008-10-15, 03:01:00,VALID,915.559,VALID,0,VALID,100,VALID,-0.0169808,VALID,20.6506,VALID,144,VALID,0,
2008-10-15, 03:02:00,VALID,915.533,VALID,0,VALID,100,VALID,-0.0339617,VALID,20.6439,VALID,133,VALID,0,
2008-10-15, 03:03:00,VALID,915.53,VALID,0,VALID,100,VALID,-0.0169808,VALID,20.6596,VALID,121,VALID,0,
2008-10-15, 03:04:00,VALID,915.496,VALID,0,VALID,100,VALID,0,VALID,20.6696,VALID,87,VALID,0,
2008-10-15, 03:05:00,VALID,915.469,VALID,0,VALID,100,VALID,0,VALID,20.6828,VALID,89,VALID,0,
2008-10-15, 03:06:00,VALID,915.458,VALID,0,VALID,100,VALID,0,VALID,20.6955,VALID,70,VALID,0,
2008-10-15, 03:07:00,VALID,915.456,VALID,0,VALID,100,VALID,-0.0169808,VALID,20.6988,VALID,60,VALID,0,
2008-10-15, 03:08:00,VALID,915.472,VALID,0,VALID,100,VALID,0,VALID,20.6758,VALID,59,VALID,0,
2008-10-15, 03:09:00,VALID,915.467,VALID,0,VALID,100,VALID,0,VALID,20.6501,VALID,74,VALID,0,
2008-10-15, 03:10:00,VALID,915.46,VALID,0,VALID,100,VALID,-0.0169808,VALID,20.6471,VALID,96,VALID,0,
2008-10-15, 03:11:00,VALID,915.469,VALID,0,VALID,100,VALID,0,VALID,20.6276,VALID,99,VALID,0.157738,
2008-10-15, 03:12:00,VALID,915.46,VALID,0,VALID,100,VALID,0,VALID,20.6176,VALID,103,VALID,0.676367,
2008-10-15, 03:13:00,VALID,915.454,VALID,0,VALID,100,VALID,-0.0339617,VALID,20.6306,VALID,97,VALID,0.00426136,
2008-10-15, 03:14:00,VALID,915.444,VALID,0,VALID,100,VALID,-0.0169808,VALID,20.6209,VALID,107,VALID,0.351732,
2008-10-15, 03:15:00,VALID,915.44,VALID,0,VALID,100,VALID,-0.0169808,VALID,20.6112,VALID,109,VALID,0.0106027,
2008-10-15, 03:16:00,VALID,915.464,VALID,0,VALID,100,VALID,-0.0169808,VALID,20.6112,VALID,121,VALID,0.703869,
2008-10-15, 03:17:00,VALID,915.463,VALID,0,VALID,100,VALID,-0.0169808,VALID,20.6274,VALID,126,VALID,1.29287,
2008-10-15, 03:18:00,VALID,915.445,VALID,0,VALID,100,VALID,-0.0169808,VALID,20.6306,VALID,101,VALID,1.8492,
2008-10-15, 03:19:00,VALID,915.433,VALID,0,VALID,100,VALID,-0.0169808,VALID,20.6536,VALID,134,VALID,1.17653,
2008-10-15, 03:20:00,VALID,915.427,VALID,0,VALID,100,VALID,-0.0169808,VALID,20.6601,VALID,110,VALID,0.869978,
2008-10-15, 03:21:00,VALID,915.417,VALID,0,VALID,100,VALID,-0.0169808,VALID,20.6796,VALID,118,VALID,1.59661,
2008-10-15, 03:22:00,VALID,915.408,VALID,0,VALID,100,VALID,-0.0339617,VALID,20.7055,VALID,132,VALID,1.29492,
2008-10-15, 03:23:00,VALID,915.4,VALID,0,VALID,100,VALID,-0.0339617,VALID,20.719,VALID,135,VALID,1.97408,
2008-10-15, 03:24:00,VALID,915.394,VALID,0,VALID,100,VALID,-0.0339617,VALID,20.7185,VALID,127,VALID,1.67461,
2008-10-15, 03:25:00,VALID,915.376,VALID,0,VALID,100,VALID,0,VALID,20.6955,VALID,138,VALID,0.340892,
2008-10-15, 03:26:00,VALID,915.368,VALID,0,VALID,100,VALID,-0.0169808,VALID,20.6698,VALID,140,VALID,0.507431,
2008-10-15, 03:27:00,VALID,915.358,VALID,0,VALID,100,VALID,-0.0339617,VALID,20.6376,VALID,150,VALID,0.689453,
2008-10-15, 03:28:00,VALID,915.319,VALID,0,VALID,100,VALID,-0.0169808,VALID,20.6122,VALID,158,VALID,0.0619673,
2008-10-15, 03:29:00,VALID,915.3,VALID,0,VALID,100,VALID,0,VALID,20.5887,VALID,151,VALID,0.00136719,
2008-10-15, 03:30:00,VALID,915.279,VALID,0,VALID,100,VALID,-0.0169808,VALID,20.5695,VALID,118,VALID,0.456473,
2008-10-15, 03:31:00,VALID,915.278,VALID,0,VALID,100,VALID,-0.101885,VALID,20.5895,VALID,75,VALID,0.535429,
2008-10-15, 03:32:00,VALID,915.275,VALID,0,VALID,100,VALID,-0.0339617,VALID,20.6052,VALID,82,VALID,0.654762,
2008-10-15, 03:33:00,VALID,915.28,VALID,0,VALID,100,VALID,-0.0339617,VALID,20.6114,VALID,98,VALID,1.3165,
2008-10-15, 03:34:00,VALID,915.257,VALID,0,VALID,100,VALID,-0.0169808,VALID,20.6796,VALID,69,VALID,1.29557,
2008-10-15, 03:35:00,VALID,915.242,VALID,0,VALID,100,VALID,0,VALID,20.745,VALID,62,VALID,0.886824,
2008-10-15, 03:36:00,VALID,915.203,VALID,0,VALID,100,VALID,-0.0169808,VALID,20.7542,VALID,87,VALID,1.39621,
2008-10-15, 03:37:00,VALID,915.159,VALID,0,VALID,100,VALID,0,VALID,20.7834,VALID,69,VALID,1.99961,
2008-10-15, 03:38:00,VALID,915.135,VALID,0,VALID,100,VALID,-0.0169808,VALID,20.8319,VALID,68,VALID,1.72493,
2008-10-15, 03:39:00,VALID,915.124,VALID,0,VALID,99.7892,VALID,-0.0339617,VALID,20.8486,VALID,77,VALID,2.74333,
2008-10-15, 03:40:00,VALID,915.129,VALID,0,VALID,99.5437,VALID,-0.0169808,VALID,20.897,VALID,89,VALID,1.67614,
2008-10-15, 03:41:00,VALID,915.072,VALID,0,VALID,99.4484,VALID,0,VALID,20.9033,VALID,56,VALID,0.659412,
2008-10-15, 03:42:00,VALID,915.08,VALID,0,VALID,99.3632,VALID,-0.0169808,VALID,20.8838,VALID,84,VALID,1.80297,
2008-10-15, 03:43:00,VALID,915.051,VALID,0,VALID,99.2347,VALID,-0.0169808,VALID,20.884,VALID,91,VALID,2.52121,
2008-10-15, 03:44:00,VALID,915.034,VALID,0,VALID,99.1674,VALID,-0.0169808,VALID,20.9068,VALID,69,VALID,2.6266,
2008-10-15, 03:45:00,VALID,915.022,VALID,0,VALID,98.9995,VALID,0,VALID,20.9292,VALID,75,VALID,2.92873,
2008-10-15, 03:46:00,VALID,914.992,VALID,0,VALID,98.6524,VALID,0,VALID,20.9357,VALID,85,VALID,2.26065,